Weather History for Middlebury State AP, Middlebu, VT

Change the Weather History Date:

Wednesday, August 27, 2014

  Actual Average (KMPV) Record (KMPV)
Temperature  
Mean Temperature 76 °F 64 °F  
Max Temperature 86 °F 75 °F 91 °F (1952)
Min Temperature 65 °F 52 °F 36 °F (1954)
Degree Days  
Heating Degree Days 0 3  
Month to date heating degree days 55  
Since 1 June heating degree days 216  
Since 1 July heating degree days 95  
Cooling Degree Days 10 2  
Month to date cooling degree days 70  
Year to date cooling degree days 238  
Since 1 June cooling degree days 228  
Growing Degree Days 26 (Base 50)    
Moisture  
Dew Point 62 °F    
Average Humidity 66    
Maximum Humidity 79    
Minimum Humidity 50    
Precipitation  
Precipitation 0.00 in 0.10 in 1.43 in (1983)
Month to date precipitation 3.61  
Year to date precipitation 24.40  
Sea Level Pressure  
Sea Level Pressure 29.93 in    
Wind  
Wind Speed 5 mph (South)    
Max Wind Speed 10 mph    
Max Gust Speed 17 mph    
Visibility 10 miles    
Events      
T = Trace of Precipitation, MM = Missing Value Source: NWS Daily Summary

Daily Weather History Graph

Daily Weather History Graph

Search for Another Location

Airport:

Trip Planner

Search our weather history database for the weather conditions in past years. The results will help you decide how hot, cold, wet, or windy it might be!

Date:

Astronomy

Aug. 27, 2014 Rise Set
Actual Time 6:09 AM EDT 7:37 PM EDT
Civil Twilight 5:39 AM EDT 8:07 PM EDT
Nautical Twilight 5:03 AM EDT 8:43 PM EDT
Astronomical Twilight 4:24 AM EDT 9:21 PM EDT
Moon 8:08 AM EDT (8/27) 8:21 PM EDT (8/27)
Length of Visible Light 14h 27m
Length of Day
13h 27m
Waxing Crescent, 4% of the Moon is Illuminated
Aug 27
Waxing Crescent
Sep 2
First Quarter
Sep 8
Full
Sep 15
Last Quarter
Sep 24
New

Hourly Weather History & Observations

Time (EDT) Temp. Heat Index Dew Point Humidity Pressure Visibility Wind Dir Wind Speed Gust Speed Precip Events Conditions
12:15 AM 72.5 °F - 59.9 °F 64% 29.98 in 10.0 mi SSE 5.8 mph - N/A   Clear
12:35 AM 73.0 °F - 59.7 °F 63% 29.99 in 10.0 mi SSE 4.6 mph - N/A   Scattered Clouds
12:55 AM 73.2 °F - 59.2 °F 61% 29.98 in 10.0 mi South 5.8 mph - N/A   Mostly Cloudy
1:15 AM 72.7 °F - 59.7 °F 64% 29.98 in 10.0 mi SSE 5.8 mph - N/A   Mostly Cloudy
1:35 AM 73.2 °F - 59.4 °F 62% 29.98 in 10.0 mi SSE 4.6 mph - N/A   Overcast
1:55 AM 73.0 °F - 59.7 °F 63% 29.97 in 10.0 mi SE 4.6 mph - N/A   Overcast
2:15 AM 72.9 °F - 59.7 °F 63% 29.97 in 10.0 mi South 4.6 mph - N/A   Overcast
2:35 AM 71.8 °F - 59.7 °F 66% 29.96 in 10.0 mi SSE 5.8 mph - N/A   Scattered Clouds
2:55 AM 72.5 °F - 59.5 °F 64% 29.96 in 10.0 mi South 5.8 mph - N/A   Mostly Cloudy
3:15 AM 71.6 °F - 60.4 °F 68% 29.96 in 10.0 mi South 3.5 mph - N/A   Overcast
3:35 AM 71.6 °F - 59.9 °F 66% 29.95 in 10.0 mi Calm Calm - N/A   Mostly Cloudy
3:50 AM 72.0 °F - 59.5 °F 65% 29.95 in 10.0 mi Calm Calm - N/A   Mostly Cloudy
4:15 AM 69.1 °F - 60.4 °F 74% 29.95 in 10.0 mi South 4.6 mph - N/A   Mostly Cloudy
4:35 AM 69.4 °F - 60.1 °F 72% 29.95 in 10.0 mi Calm Calm - N/A   Scattered Clouds
4:55 AM 68.9 °F - 59.9 °F 73% 29.96 in 10.0 mi South 4.6 mph - N/A   Scattered Clouds
5:15 AM 69.4 °F - 59.9 °F 72% 29.96 in 10.0 mi Calm Calm - N/A   Scattered Clouds
5:35 AM 70.3 °F - 59.9 °F 69% 29.96 in 10.0 mi Calm Calm - N/A   Mostly Cloudy
6:00 AM 71.1 °F - 59.9 °F 68% 29.96 in 10.0 mi South 5.8 mph - N/A   Mostly Cloudy
6:15 AM 70.9 °F - 59.9 °F 68% 29.97 in 10.0 mi SSE 5.8 mph - N/A   Mostly Cloudy
6:35 AM 70.7 °F - 59.9 °F 69% 29.97 in 10.0 mi SSE 4.6 mph - N/A   Scattered Clouds
6:55 AM 69.8 °F - 60.8 °F 73% 29.97 in 10.0 mi Calm Calm - N/A   Scattered Clouds
7:15 AM 70.2 °F - 60.8 °F 72% 29.97 in 10.0 mi Calm Calm - N/A   Mostly Cloudy
7:35 AM 70.0 °F - 61.2 °F 73% 29.97 in 10.0 mi SSE 4.6 mph - N/A   Scattered Clouds
7:55 AM 69.8 °F - 61.7 °F 75% 29.97 in 10.0 mi SSE 3.5 mph - N/A   Scattered Clouds
8:15 AM 71.1 °F - 61.9 °F 73% 29.97 in 10.0 mi South 3.5 mph - N/A   Scattered Clouds
8:35 AM 71.2 °F - 62.1 °F 73% 29.97 in 10.0 mi South 5.8 mph - N/A   Clear
8:55 AM 70.9 °F - 62.2 °F 74% 29.96 in 10.0 mi SSE 3.5 mph - N/A   Clear
9:15 AM 72.7 °F - 63.0 °F 71% 29.97 in 10.0 mi South 4.6 mph - N/A   Clear
9:35 AM 74.3 °F - 63.0 °F 68% 29.96 in 10.0 mi SSE 5.8 mph - N/A   Clear
9:55 AM 75.7 °F - 63.7 °F 66% 29.96 in 10.0 mi South 9.2 mph - N/A   Clear
10:15 AM 76.8 °F - 64.8 °F 66% 29.96 in 10.0 mi South 9.2 mph - N/A   Clear
10:35 AM 77.0 °F - 64.9 °F 66% 29.95 in 10.0 mi South 5.8 mph - N/A   Clear
10:55 AM 75.6 °F - 64.8 °F 69% 29.94 in 10.0 mi SSE 5.8 mph - N/A   Clear
11:15 AM 78.4 °F - 66.4 °F 66% 29.94 in 10.0 mi South 4.6 mph - N/A   Clear
11:35 AM 80.1 °F 82.3 °F 67.1 °F 64% 29.94 in 10.0 mi South 4.6 mph - N/A   Clear
11:55 AM 80.4 °F 82.7 °F 66.7 °F 63% 29.93 in 10.0 mi South 3.5 mph - N/A   Mostly Cloudy
12:15 PM 81.0 °F 83.2 °F 66.4 °F 61% 29.92 in 10.0 mi Calm Calm - N/A   Mostly Cloudy
12:35 PM 82.6 °F 85.5 °F 67.8 °F 61% 29.92 in 10.0 mi SSW 5.8 mph - N/A   Mostly Cloudy
12:55 PM 82.9 °F 85.4 °F 66.9 °F 58% 29.91 in 10.0 mi SW 4.6 mph - N/A   Mostly Cloudy
1:15 PM 82.2 °F 84.6 °F 66.4 °F 59% 29.90 in 10.0 mi Calm Calm - N/A   Mostly Cloudy
1:35 PM 83.7 °F 86.2 °F 66.7 °F 57% 29.89 in 10.0 mi SSW 6.9 mph - N/A   Overcast
2:00 PM 84.0 °F 86.5 °F 66.9 °F 56% 29.89 in 10.0 mi SSW 4.6 mph - N/A   Mostly Cloudy
2:15 PM 84.4 °F 85.9 °F 64.6 °F 51% 29.88 in 10.0 mi West 5.8 mph - N/A   Mostly Cloudy
2:35 PM 85.1 °F 86.6 °F 64.4 °F 50% 29.88 in 10.0 mi North 5.8 mph - N/A   Scattered Clouds
2:55 PM 82.0 °F 84.9 °F 68.0 °F 62% 29.87 in 10.0 mi Calm Calm - N/A   Mostly Cloudy
3:15 PM 82.6 °F 85.7 °F 68.5 °F 62% 29.87 in 10.0 mi South 4.6 mph - N/A   Overcast
3:35 PM 84.2 °F 87.3 °F 68.2 °F 58% 29.86 in 10.0 mi SSW 6.9 mph - N/A   Overcast
4:15 PM 84.6 °F 88.2 °F 68.7 °F 59% 29.85 in 10.0 mi WSW 6.9 mph - N/A   Mostly Cloudy
4:35 PM 81.1 °F 83.9 °F 67.8 °F 64% 29.85 in 10.0 mi WNW 3.5 mph - N/A   Mostly Cloudy
4:55 PM 79.5 °F - 67.1 °F 66% 29.86 in 10.0 mi NNW 8.1 mph - N/A   Overcast
5:15 PM 81.0 °F 83.2 °F 66.6 °F 61% 29.87 in 10.0 mi North 10.4 mph 17.3 mph N/A   Scattered Clouds
5:35 PM 80.1 °F 82.2 °F 66.4 °F 63% 29.87 in 10.0 mi North 9.2 mph - N/A   Clear
5:55 PM 78.8 °F - 64.6 °F 62% 29.87 in 10.0 mi North 10.4 mph - N/A   Clear
6:15 PM 77.9 °F - 64.4 °F 63% 29.87 in 10.0 mi NNW 10.4 mph - N/A   Clear
6:35 PM 76.5 °F - 64.0 °F 65% 29.87 in 10.0 mi North 8.1 mph - N/A   Clear
6:55 PM 75.4 °F - 63.5 °F 66% 29.88 in 10.0 mi NNW 8.1 mph - N/A   Clear
7:15 PM 73.6 °F - 63.0 °F 69% 29.89 in 10.0 mi North 6.9 mph - N/A   Clear
7:35 PM 72.0 °F - 62.6 °F 72% 29.90 in 10.0 mi North 4.6 mph - N/A   Clear
7:55 PM 70.9 °F - 62.1 °F 74% 29.91 in 10.0 mi North 5.8 mph - N/A   Clear
8:15 PM 71.4 °F - 60.1 °F 67% 29.90 in 10.0 mi NNE 3.5 mph - N/A   Clear
8:35 PM 71.8 °F - 59.2 °F 64% 29.91 in 10.0 mi NE 4.6 mph - N/A   Clear
8:55 PM 71.4 °F - 59.0 °F 65% 29.92 in 10.0 mi North 5.8 mph - N/A   Clear
9:15 PM 70.7 °F - 58.8 °F 66% 29.93 in 10.0 mi North 8.1 mph - N/A   Clear
9:35 PM 69.6 °F - 59.4 °F 70% 29.93 in 10.0 mi Calm Calm - N/A   Scattered Clouds
9:55 PM 69.6 °F - 58.5 °F 68% 29.92 in 10.0 mi North 3.5 mph - N/A   Scattered Clouds
10:15 PM 70.0 °F - 57.6 °F 65% 29.92 in 10.0 mi Calm Calm - N/A   Clear
10:35 PM 69.1 °F - 58.1 °F 68% 29.92 in 10.0 mi Calm Calm - N/A   Clear
10:55 PM 67.6 °F - 59.5 °F 75% 29.92 in 10.0 mi Calm Calm - N/A   Clear
11:15 PM 66.4 °F - 59.4 °F 78% 29.92 in 10.0 mi Calm Calm - N/A   Clear
11:35 PM 66.2 °F - 59.0 °F 78% 29.92 in 10.0 mi Calm Calm - N/A   Clear
11:55 PM 65.5 °F - 58.8 °F 79% 29.92 in 10.0 mi Calm Calm - N/A   Clear